THORAD AGENA D DEB, 19422

Orbit data source: Space-Track

THORAD AGENA D DEB, 19422 is space debris in SSO originally from a launch on Wed, 08 Apr 1970 UTC launched from the Air Force Western Test Range (AFWTR). Debris objects in space refer to the collection of defunct objects orbiting the Earth. Examples of debris include non-operational satellites, rocket bodies, and fragments generated from explosions, collisions, or faulty payload assembly.

Loading next visibility...
Identifier
19422, 1970-025QA
Orbit
SSO
Country
Flag of USUS
Related business
Manufacturer
Unknown
Mission
Spacecraft
Bus & Motor
Unknown
Mass
Unknown
Launch date (UTC)
1970-04-08 (56 years ago)
Launch vehicle
Unknown
Launch site
Air Force Western Test Range (AFWTR)
Object type
Payload
Rocket body
Debris
Shape & HBR
Unknown shape, 0.1 m
Radar Cross Section
Small (<0.1 m²)

Expand to show TLE details & history
Last TLE update: 1 day ago

TLE from 1 day ago
0 THORAD AGENA D DEB
1 19422U 70025QA  25352.12824007  .00000400  00000-0  53940-3 0  9991
2 19422 100.1032  46.4421 0010247  31.3393 356.2637 13.66602389 21890
Epoch: 2025-12-18T03:04Z
TLE epoch observation values (Epoch: 2025-12-18T03:04:39.942Z)
Latitude
27.17127°
Longitude
-91.93296°
Altitude
1,007.448 km
Speed
7.354 km/s
True Right ascension
02h 44m 53s
True Declination
27° 02' 11"
Sunlit
Object was in full shadow at epoch
Visualization orbit readout
Latitude
Unknown
Longitude
Unknown
Altitude
Unknown
Speed
Unknown
Apparent Right ascension
Unknown
Apparent Declination
Unknown
Sunlit
N/A
Visualization observer readout
Local Sidereal Time
09:15:28
Azimuth
Unknown
Elevation
Unknown
Doppler factor
Unknown
Orbital elements
Apogee altitude
1,016.664 km
Perigee altitude
1,001.525 km
Semi-major axis
7,387.232 km
Eccentricity
0.00102
Inclination
100.1032°
RAAN
46.4421°
Arg. of periapsis
31.3393°
True anomaly
356.25604°
Mean anomaly
356.2637°
Eccentric anomaly
356.25987°
Mean motion
3.41838 °/min
Orbital period
105.31 mins
BSTAR
0.0005394
Loading maneuver chart data...
Computing Atmospheric mass density...

Documentation

Showing up to 5 results
|